Terminal Aerodrome Forecast
Issued by NWS

Home | Current Version | Previous Version | Text Only | Print | Product List | Glossary On
Versions: 1 2 3 4 5 6 7 8 9 10 11 12 13 14 15 16 17 18 19 20 21 22 23 24
000
FTUS46 KEKA 260525
TAFUKI
TAF
KUKI 260525Z 2606/2706 36004KT P6SM SCT150
     FM261100 00000KT 3SM BR OVC003
     FM261630 VRB03KT P6SM FEW090
     FM262100 31008G14KT P6SM SKC
     FM270100 VRB03KT P6SM SKC=

USA.gov is the U.S. government's official web portal to all federal, state and local government web resources and services.